Temp_Advection
nan nan nan nan nan nan nan nan nan nan nan nan nan nan nan nan nan nan nan nan nan nan nan nan nan nan nan nan nan nan nan nan nan nan nan nan nan nan nan nan nan nan nan nan nan nan nan nan nan nan nan nan nan nan nan nan nan nan nan nan nan nan nan
nan -1 -1 -0 -1 -1 -2 -2 -0 0 -0 -1 -0 0 -0 -0 0 -0 -0 0 0 1 1 0 0 -0 -0 0 1 0 -0 -1 -1 -0 0 0 0 0 0 -0 -1 -0 0 0 0 0 0 0 1 0 0 0 -0 -0 -0 0 0 0 -0 -0 -0 -1 nan
nan -1 -1 -1 -2 -2 -2 -1 0 -0 -1 -1 -1 -1 -1 -1 -0 -0 -0 -0 0 1 0 0 -0 -0 0 0 1 0 -0 -1 -1 -1 -0 -0 -0 0 0 -0 -1 -0 0 0 0 0 0 0 1 0 0 0 0 -0 0 0 0 0 -0 -0 -0 -0 nan
nan -1 -1 -1 -2 -2 -2 -0 -0 -1 -1 -1 -1 -1 -1 0 1 0 -0 -0 0 -0 -1 -1 -0 0 0 0 0 -0 -1 -1 -1 -1 -0 -0 0 1 0 -0 -0 0 0 0 0 0 0 1 1 0 0 0 0 0 0 0 0 0 0 -0 -1 -1 nan
nan -0 -0 -1 -1 -1 -1 -1 -1 -1 0 -0 -0 -0 1 2 2 1 -0 -0 -0 -1 -1 0 0 1 1 0 0 -0 -0 -1 -1 -0 -0 -0 0 0 -0 -0 -0 0 -0 0 0 0 0 0 0 0 -0 0 0 0 -0 -0 0 0 -0 -1 -1 -1 nan
nan -0 -0 -1 -1 -1 -1 -1 -1 0 0 -0 0 1 2 3 1 0 -0 0 0 0 1 1 1 0 0 0 0 -0 -0 -0 -0 0 -0 -0 0 -0 -0 -0 0 -0 -0 0 0 -0 -0 0 -0 -0 -0 0 0 -0 -0 -0 0 0 -0 -1 -1 -1 nan
nan -1 -1 -1 -1 -1 -1 -0 1 1 1 1 2 2 3 2 0 0 0 0 0 1 1 1 -0 -0 0 0 0 -0 -1 -0 0 0 -0 -0 -0 -0 -0 0 0 -0 -0 0 0 -0 -0 -0 -0 -0 -0 0 0 -0 -0 -0 0 0 0 -0 -0 -0 nan
nan -1 -1 -1 -1 -1 -1 0 1 1 1 2 2 2 1 1 0 0 -0 -0 0 0 0 -0 -0 -0 0 0 -0 -1 -1 -0 1 1 0 -0 -0 -0 -0 -0 0 0 -0 -0 -0 -0 -0 -0 -0 0 0 0 0 -0 -0 0 1 1 0 -0 -0 -0 nan
nan -1 -1 -1 -1 -1 -0 0 1 2 2 2 1 1 1 1 -0 -0 -0 0 1 0 0 0 0 0 0 0 -0 -1 -0 0 1 1 0 -0 -1 -1 -1 -0 0 0 -0 -0 0 0 -0 -0 -0 0 0 0 0 -0 0 0 1 1 0 -0 -0 -0 nan
nan -0 -0 -0 -1 -0 1 2 3 2 1 0 1 1 1 -0 -0 0 1 1 1 1 1 1 1 1 1 0 0 0 0 0 1 1 -0 -1 -2 -2 -0 0 0 -0 -0 -0 -0 -0 -0 0 0 -0 0 0 0 0 0 0 1 1 0 -0 -0 -0 nan
nan 0 1 1 -0 1 2 3 2 1 -0 0 1 0 -0 -1 0 0 0 0 1 1 1 1 1 1 1 1 1 0 -0 -0 1 0 -1 -2 -2 -1 0 0 -0 -0 -0 -0 -0 0 0 0 -0 -0 -0 -0 0 0 0 0 0 0 0 0 0 1 nan
nan 0 1 0 1 2 2 1 0 -0 0 1 0 -0 -1 -0 -0 -0 0 1 1 1 1 1 1 1 1 1 1 -0 -0 -0 -1 -1 -1 -2 -2 -1 1 0 -0 -0 -1 -0 0 0 0 -0 -1 -1 -0 0 0 0 0 0 0 0 1 1 1 1 nan
nan 1 1 1 2 2 0 -0 -0 -0 -0 -0 -0 -0 -0 0 0 -0 1 1 1 1 0 0 1 0 0 0 0 -0 -1 -1 -2 -2 -1 -2 -1 0 1 0 -0 -1 -1 0 1 0 -0 -0 -0 -0 0 1 0 1 1 1 1 1 1 2 2 1 nan
nan 2 2 2 1 0 -1 -0 -0 -1 -1 -1 0 0 1 1 1 0 1 0 0 1 -0 0 0 0 0 0 -0 -1 -2 -2 -2 -1 -1 -0 1 1 1 1 0 -0 0 1 0 -0 -0 -0 1 1 1 1 0 1 1 1 1 1 1 1 1 1 nan
nan 1 1 0 -1 -1 -1 0 0 -1 -2 -0 0 0 1 1 1 1 1 0 1 0 -0 0 0 0 -0 -1 -2 -2 -1 -1 -1 -1 0 1 1 1 0 0 0 1 1 0 -1 -0 0 1 2 1 1 1 1 1 1 0 0 1 1 1 1 1 nan
nan -2 -2 -3 -2 -1 -1 0 0 -2 -2 0 0 -0 -0 -1 -0 -0 -0 0 1 0 1 1 0 -0 -1 -2 -2 -0 0 0 -0 -0 0 0 0 0 1 1 1 2 1 -0 -0 1 2 2 2 1 0 0 0 0 -0 -0 -0 0 0 1 2 2 nan
nan -2 -3 -3 -1 0 1 1 -0 -2 -1 0 -0 -1 -1 -1 -1 0 0 1 0 0 1 0 -1 -1 -2 -2 0 1 0 0 0 -0 -0 -0 0 1 1 2 2 2 1 0 1 2 3 3 1 0 -0 -0 -0 -0 -1 -1 -0 0 1 3 3 2 nan
nan 1 0 1 3 3 2 1 -2 -3 -1 -1 -1 -1 -1 -1 1 1 0 -0 -0 1 1 -0 -1 -1 -1 -0 1 0 -0 0 0 -0 -1 -1 -0 1 2 3 3 2 1 1 1 2 2 2 0 -0 -0 -1 -1 -1 -1 -0 0 1 2 3 2 1 nan
nan 1 2 3 3 1 0 -1 -3 -3 -2 -1 -1 -1 -1 1 1 -1 -1 -0 1 2 1 -1 -1 -1 -0 1 0 -1 -0 1 0 -1 -2 -1 0 3 5 3 1 1 2 1 1 2 2 0 -0 -0 -1 -1 -1 -1 -0 0 1 2 3 2 1 1 nan
nan -1 -0 0 -0 -1 -1 -2 -3 -3 -2 -1 -1 -0 1 2 0 -0 2 3 3 2 -0 -1 0 -0 0 1 -0 -1 1 1 -0 -1 -2 0 3 4 3 1 1 3 3 2 1 1 -0 -1 -1 -1 -1 -1 -0 0 0 1 1 2 2 1 1 1 nan
nan -1 -2 -2 -2 -3 -3 -3 -3 -3 -2 -1 0 1 2 1 1 2 4 3 2 -0 -1 0 0 -0 0 0 -0 0 1 0 -0 -1 -0 2 3 2 1 1 2 3 2 1 0 -1 -2 -1 -1 -1 -0 0 1 1 1 1 1 1 1 1 1 1 nan
nan -0 -1 -2 -2 -3 -3 -3 -3 -2 -1 0 1 2 1 1 1 3 3 2 1 -0 0 1 1 0 0 -0 -0 0 -0 -0 0 0 1 2 1 1 0 1 2 2 0 -0 -1 -2 -1 -1 -0 0 1 1 1 1 1 1 1 2 2 1 1 1 nan
nan 1 1 2 1 1 0 0 -0 -0 0 1 1 1 1 1 2 3 2 1 0 0 1 1 0 0 0 -0 -1 -1 -1 0 0 0 1 1 -0 -0 0 1 1 0 -1 -2 -2 -2 -1 -1 0 1 1 1 1 0 1 1 1 1 1 1 1 1 nan
nan 1 2 2 1 1 1 1 0 0 1 2 1 1 1 3 3 3 2 0 -0 1 1 0 -1 -0 -1 -1 -1 -0 -0 0 0 1 1 -0 -1 0 0 0 -0 -1 -2 -2 -2 -1 -0 1 1 1 0 0 0 0 1 1 1 1 1 1 0 0 nan
nan 1 1 0 -0 -0 -0 -1 -1 0 2 2 0 1 2 3 2 1 -0 -1 0 2 1 -1 -2 -2 -2 -1 0 1 0 0 1 1 0 -0 0 1 0 -1 -1 -1 -1 0 0 1 1 1 1 0 -0 0 1 1 2 2 1 1 1 0 -0 0 nan
nan 0 0 0 1 0 0 -0 -0 1 1 0 -1 1 2 1 0 -0 -2 -0 2 1 -1 -2 -3 -2 -1 0 2 2 0 0 0 0 1 1 1 1 -0 -0 -0 -0 1 2 1 1 1 1 1 0 0 1 1 2 2 1 1 1 0 0 0 1 nan
nan 0 0 0 0 0 0 0 0 0 0 -0 0 1 1 0 0 -1 -1 2 2 -2 -4 -2 -1 0 2 3 3 1 -0 -0 0 1 2 2 2 1 0 0 1 1 2 2 1 1 1 1 0 1 1 1 1 2 1 1 1 1 1 1 1 1 nan
nan 0 0 0 0 -0 -0 -0 0 1 1 1 2 3 3 3 2 1 2 3 0 -2 -1 2 2 3 4 4 2 0 0 1 1 2 2 2 2 0 0 1 2 2 2 2 1 1 1 1 1 1 1 2 2 2 2 1 1 1 1 1 1 1 nan
nan 0 0 0 0 0 0 0 1 1 2 3 3 4 4 4 3 3 5 3 1 3 5 6 5 4 4 2 1 0 1 1 1 2 2 2 2 0 0 2 4 3 2 1 1 1 1 1 1 1 2 2 2 2 2 1 1 1 1 0 1 1 nan
nan -0 -0 -0 -0 0 0 0 0 1 1 1 2 3 2 2 2 3 4 3 3 5 5 5 4 3 2 1 0 0 0 1 2 3 2 2 2 1 1 3 4 2 1 1 0 1 2 1 2 2 3 2 2 2 1 1 1 0 0 1 1 1 nan
nan -1 -0 -0 -0 -0 -0 -0 -0 -0 -0 -0 1 1 1 1 1 2 1 1 2 3 2 2 1 1 1 0 0 0 1 2 4 4 3 5 4 2 3 5 3 2 1 1 2 3 2 1 2 3 2 1 1 1 1 0 0 0 1 1 1 1 nan
nan -1 -1 -1 -1 -0 -0 -0 -0 -0 -0 -0 0 1 1 1 1 0 0 1 1 2 2 2 0 -0 1 2 2 4 5 6 7 6 6 6 4 3 4 4 2 1 0 1 3 3 1 1 2 2 1 1 1 0 0 0 0 1 1 1 1 1 nan
nan -2 -2 -2 -2 -1 -1 -1 -1 -0 0 0 0 0 0 0 -0 -0 0 1 2 1 1 1 0 1 4 5 7 8 8 8 7 5 4 3 2 2 1 -0 -1 -1 -1 0 2 1 -1 -0 1 1 0 0 0 -0 0 1 1 0 0 0 0 0 nan
nan -1 -1 -2 -2 -2 -1 -1 -1 -1 -0 0 -0 -0 0 0 -0 0 1 1 1 -0 0 1 2 3 4 5 5 5 5 4 3 2 1 1 -1 -1 -2 -2 -1 -0 0 1 2 -1 -2 -1 1 0 -0 -0 -0 -0 -0 -0 -1 -1 -0 -0 -1 -1 nan
nan -0 -1 -1 -1 -1 -1 -1 -1 -1 -0 0 -0 -0 0 1 1 1 0 -0 -1 -0 2 3 2 1 1 1 2 1 2 2 2 0 -0 -2 -2 -1 0 1 1 2 3 3 2 0 1 2 1 0 -0 -0 -0 -0 -1 -1 -1 -0 0 0 -1 -1 nan
nan -0 -0 -1 -0 -1 -1 -1 -1 -1 -0 -0 0 -0 0 0 0 -0 -0 -0 0 2 5 5 4 4 4 4 4 3 1 1 -1 -1 -1 -1 -0 1 2 2 3 3 3 3 1 1 1 1 0 0 0 0 0 0 0 0 0 1 0 0 0 0 nan
nan -0 -1 -0 -0 -0 -0 -0 -0 -0 -0 -0 -0 -0 -1 -0 -0 0 1 2 3 5 7 7 8 9 9 7 7 6 3 0 -0 0 1 3 3 2 1 1 2 3 2 1 1 0 1 0 0 1 1 1 1 1 1 1 1 1 0 -0 0 0 nan
nan nan nan nan nan nan nan nan nan nan nan nan nan nan nan nan nan nan nan nan nan nan nan nan nan nan nan nan nan nan nan nan nan nan nan nan nan nan nan nan nan nan nan nan nan nan nan nan nan nan nan nan nan nan nan nan nan nan nan nan nan nan nan
Wind_Speed
46 48 50 52 53 53 54 55 56 56 56 56 56 57 57 56 56 56 55 54 53 51 49 49 48 47 46 46 46 45 44 41 39 37 35 35 34 33 32 31 30 28 28 27 26 24 22 22 22 20 18 16 14 15 16 16 17 18 19 19 18 17 16
43 46 49 50 51 53 54 55 56 56 56 57 57 57 57 57 57 57 56 55 53 51 50 49 49 47 46 45 45 45 45 43 40 38 37 36 35 34 33 32 30 29 29 28 26 25 23 23 22 21 19 17 16 16 16 17 18 20 21 21 20 19 18
41 44 47 50 52 53 55 56 56 56 57 57 57 57 58 58 58 58 57 55 54 52 50 49 49 47 45 44 44 44 45 44 42 40 39 38 37 36 35 33 31 30 30 29 27 26 25 24 23 22 21 19 18 17 17 18 20 21 21 21 21 20 19
41 44 47 50 53 55 55 56 56 56 57 57 58 58 59 59 59 58 57 55 54 53 52 50 48 47 45 44 43 43 44 45 44 42 40 39 38 36 36 35 33 32 31 30 28 27 26 26 25 24 23 22 20 19 18 18 20 22 21 22 22 22 21
41 43 45 48 52 54 55 56 56 57 57 57 58 58 58 58 58 58 56 55 54 53 52 50 47 46 46 44 42 42 42 43 44 43 41 40 39 38 37 37 35 34 33 31 29 28 27 27 27 26 26 24 22 20 20 20 20 22 22 22 23 23 22
40 42 42 46 50 53 55 56 57 57 57 57 57 57 57 57 57 57 56 55 54 53 52 50 48 46 45 45 43 41 40 41 43 44 43 41 40 40 39 38 37 35 34 32 31 30 29 28 28 28 27 26 24 22 22 22 21 22 23 24 23 23 22
42 43 45 48 50 52 55 57 57 57 57 56 56 56 56 56 56 57 56 56 55 53 52 52 50 47 45 45 44 42 40 40 41 43 43 42 41 41 40 40 38 37 36 34 32 31 30 30 30 29 28 27 26 25 24 24 24 23 24 25 25 24 23
44 45 47 49 50 52 54 55 55 55 55 54 54 55 55 56 56 56 56 56 55 54 53 53 51 49 46 45 44 42 40 39 40 42 43 43 42 42 42 41 40 39 38 36 35 33 32 32 31 30 29 28 27 27 27 27 26 26 26 26 26 25 25
44 46 49 50 51 53 53 54 54 53 53 52 53 54 54 55 56 56 57 57 56 55 54 53 51 49 48 46 45 42 39 38 39 41 42 43 44 43 43 42 42 40 40 38 36 35 33 33 32 32 31 30 30 29 29 29 29 28 28 27 27 26 26
43 46 50 51 52 53 53 53 51 50 50 51 52 53 53 54 55 56 56 56 56 56 54 52 51 50 49 48 47 43 40 38 39 41 42 43 44 44 43 43 43 42 41 40 38 37 35 34 34 33 32 32 33 32 32 31 31 31 30 30 29 27 27
42 46 49 49 51 52 50 47 47 48 51 52 53 52 52 53 54 55 55 56 56 55 53 52 51 51 51 50 49 46 43 40 39 41 43 43 44 45 44 44 44 43 42 41 40 39 37 36 36 35 35 35 35 34 33 32 32 32 32 32 31 30 29
42 44 46 48 50 48 44 43 45 49 51 51 52 52 51 52 53 54 55 55 54 53 52 52 51 51 51 51 50 49 45 42 41 41 42 43 44 44 45 45 45 45 43 42 41 41 39 38 38 37 37 37 36 35 34 33 32 33 33 33 34 33 31
42 44 46 47 47 45 42 42 45 48 50 51 51 51 51 52 53 54 54 54 53 52 52 52 51 51 52 52 52 50 48 45 42 41 42 43 44 45 45 46 46 46 45 44 43 42 42 40 39 39 39 38 38 37 35 34 33 34 34 35 35 36 34
41 43 45 44 44 43 43 44 46 47 48 50 50 51 51 51 52 53 54 54 53 52 52 52 52 52 52 52 52 52 50 47 43 41 41 42 44 45 46 47 47 47 46 45 45 44 43 42 41 40 40 39 39 38 37 36 35 35 36 36 36 37 36
35 37 37 38 41 43 44 46 47 47 48 48 48 50 51 51 51 52 53 53 53 52 53 53 53 54 53 53 53 52 51 49 46 43 42 43 45 47 48 48 48 48 48 47 46 45 45 44 43 42 41 40 40 39 39 38 38 38 37 37 37 38 37
29 32 34 37 41 43 45 46 46 47 48 47 47 48 49 50 51 52 53 53 53 54 54 54 54 54 54 54 54 53 51 50 48 46 45 45 46 47 49 49 49 49 49 48 47 46 46 45 45 43 42 41 41 40 41 40 40 39 38 38 38 38 36
31 34 38 42 45 47 47 47 46 46 46 46 45 46 47 48 50 51 53 53 54 54 54 54 55 55 56 55 54 53 52 51 50 49 48 47 47 48 49 50 50 50 51 50 48 47 46 46 45 44 43 42 41 41 41 41 40 39 38 38 38 37 35
31 36 41 44 46 46 46 46 46 46 46 46 44 44 45 47 49 51 53 54 55 55 55 55 56 56 56 55 53 53 52 52 52 51 50 49 48 48 49 50 51 51 51 51 49 48 46 46 45 44 43 41 40 40 40 39 38 37 37 37 36 35 33
29 33 37 41 43 44 44 46 46 47 47 45 43 43 45 47 50 52 53 55 55 55 55 55 56 56 56 54 53 53 52 52 53 52 51 50 49 49 50 51 52 52 52 51 49 47 46 45 44 43 42 41 40 40 38 36 35 35 35 35 34 32 30
27 30 33 36 39 42 44 45 46 46 46 44 42 42 44 47 50 52 53 54 55 54 55 56 56 56 56 55 54 53 52 52 53 53 51 50 50 50 51 52 52 52 51 50 48 47 46 45 43 42 41 40 39 38 36 35 34 34 33 32 31 28 28
24 26 31 35 37 40 43 44 44 44 44 45 44 44 46 48 50 51 53 53 53 53 54 55 56 56 56 56 55 54 53 53 53 52 51 50 50 51 51 52 52 51 50 49 48 47 45 43 42 41 40 39 38 37 35 34 34 33 31 30 27 24 25
28 27 30 33 34 36 38 42 44 44 45 47 47 47 48 49 50 52 53 53 53 53 54 54 55 56 56 57 56 55 54 54 53 52 51 50 50 50 50 51 51 50 49 48 46 45 44 41 40 39 39 38 37 35 35 35 34 32 29 26 23 21 24
28 33 35 36 37 36 36 40 44 46 46 47 48 49 50 50 51 53 53 53 52 52 53 54 55 56 56 57 57 56 55 54 53 52 51 50 50 50 50 49 49 49 48 46 46 45 43 40 39 39 38 37 36 35 35 34 32 30 26 23 21 20 22
17 26 30 33 36 38 38 42 47 48 49 48 48 50 49 49 51 53 53 52 52 52 53 54 56 57 57 58 58 58 56 54 53 52 50 50 50 49 49 48 47 47 46 45 45 43 41 39 39 39 37 36 35 34 33 32 30 28 26 23 21 20 21
7 14 17 20 25 30 33 37 41 45 49 49 48 48 48 47 48 49 50 49 49 51 53 55 57 57 58 58 59 58 57 55 53 52 51 50 50 49 48 47 46 45 44 43 43 41 39 39 39 38 37 35 34 32 31 30 29 27 25 22 20 20 21
4 4 8 11 18 24 28 30 30 34 42 47 49 49 49 47 46 46 47 47 48 51 53 55 56 57 57 58 58 58 57 56 54 53 52 51 50 49 48 46 45 44 44 44 43 40 39 39 38 37 36 34 33 31 30 28 26 24 22 20 20 21 22
9 7 4 3 8 15 21 25 27 28 31 36 42 45 46 47 47 46 46 46 48 51 53 54 55 55 56 57 58 57 56 55 55 54 53 52 51 49 48 47 47 46 45 44 42 40 39 39 38 37 35 34 32 30 29 26 24 22 21 19 20 21 21
8 7 6 4 2 7 11 15 21 27 29 31 35 40 42 45 49 50 49 49 50 51 52 52 54 56 58 58 58 57 56 55 55 55 53 53 52 51 50 49 48 48 47 45 42 40 40 40 39 37 35 33 31 30 28 25 23 22 21 20 20 21 19
7 6 4 4 2 3 6 8 13 21 30 33 35 37 38 40 43 46 47 48 49 50 52 54 55 56 57 57 57 57 56 55 55 55 55 55 54 52 51 51 50 49 47 44 42 41 41 41 40 38 35 33 31 29 26 24 23 22 21 21 21 20 18
7 6 4 4 3 1 2 4 6 10 18 26 30 32 33 34 37 40 41 41 42 42 44 49 54 55 55 55 56 56 55 54 54 55 55 55 54 53 53 52 51 50 47 45 43 43 42 41 39 36 34 32 30 28 25 23 22 22 21 21 21 19 18
10 8 7 5 3 2 2 2 3 4 7 13 21 27 29 31 34 37 39 40 40 38 36 37 44 50 53 54 55 55 55 54 53 53 55 55 54 55 54 53 51 49 47 45 43 42 41 39 36 34 33 31 28 25 23 22 21 21 21 21 20 19 19
12 11 11 9 8 6 5 3 4 5 4 7 14 21 24 28 30 32 34 36 36 37 35 31 34 42 49 52 55 55 54 53 51 50 50 50 50 50 51 51 51 48 44 42 39 38 38 36 34 32 30 27 24 22 21 21 21 22 22 21 21 21 20
14 13 13 13 12 11 9 7 6 6 6 7 10 15 19 24 27 30 33 35 34 34 31 24 24 34 42 45 48 49 48 48 49 47 47 47 49 50 49 47 44 41 38 36 34 34 35 34 32 30 27 23 21 20 19 21 22 23 24 24 24 24 22
15 14 13 13 12 11 10 10 8 7 8 8 9 13 17 22 27 30 33 35 35 36 34 28 25 30 33 34 38 42 44 46 49 50 51 50 49 48 45 41 37 35 33 32 32 35 35 32 29 27 24 21 20 19 20 23 24 24 25 26 26 26 25
18 16 15 13 11 9 8 8 6 6 7 7 9 13 16 19 23 27 30 31 33 36 37 34 32 36 36 34 36 42 46 49 52 53 52 49 44 41 40 37 33 31 31 32 32 32 28 24 22 21 19 17 17 18 20 23 23 22 23 23 23 23 23
21 18 16 14 12 9 6 5 5 5 4 5 7 11 14 16 19 21 23 27 30 34 35 36 39 45 48 45 44 47 50 52 53 51 47 44 43 40 38 34 30 29 30 31 28 23 17 14 13 13 14 14 14 15 16 17 19 21 21 21 21 20 20
24 22 20 18 15 11 8 7 6 5 3 2 5 8 12 14 16 18 19 21 24 28 34 39 41 42 45 47 48 51 53 51 49 45 40 39 39 37 35 33 31 29 28 25 20 17 14 12 11 11 12 14 16 17 16 16 18 20 21 20 21 20 19
25 24 23 21 19 17 14 11 9 9 9 8 5 1 4 6 9 12 16 20 26 30 35 41 42 40 41 40 38 40 43 41 39 38 36 36 36 35 35 37 36 31 25 20 17 17 17 17 16 17 16 16 18 20 21 21 21 20 20 20 20 19 18
Wind_Direction
195 196 197 199 201 203 205 208 209 209 209 209 210 210 210 210 210 211 212 215 217 218 218 218 218 220 222 224 227 228 228 227 225 223 222 221 221 221 221 221 224 227 227 228 231 234 235 233 231 231 229 225 228 234 232 224 216 213 217 220 217 216 220
193 196 197 199 201 203 206 210 211 210 209 210 211 210 210 210 210 211 212 214 216 217 218 218 219 220 222 225 226 227 228 227 225 224 223 221 222 222 223 224 227 229 229 231 233 235 236 233 233 234 231 226 225 230 232 226 219 217 220 222 219 218 221
194 195 197 198 201 203 206 210 211 211 210 211 210 210 211 211 211 212 212 213 214 215 217 218 219 220 222 224 226 227 228 227 225 225 223 222 222 222 224 225 228 230 231 231 233 233 233 232 232 233 232 229 226 228 231 226 219 218 220 223 223 223 225
197 196 196 199 201 204 207 209 211 212 212 212 212 212 213 213 212 212 213 215 214 213 215 218 220 221 222 223 224 227 228 227 226 225 224 223 222 222 224 226 228 229 231 232 233 232 230 230 231 231 231 229 227 228 231 227 221 218 219 222 225 226 228
200 199 197 198 200 204 207 209 211 212 212 212 213 214 214 213 211 211 213 215 215 216 217 219 219 221 221 222 224 226 228 229 227 226 225 224 223 223 224 227 228 228 230 231 232 231 229 229 230 230 229 228 228 228 231 230 225 220 219 221 224 225 227
203 202 199 199 201 204 207 209 212 213 212 212 213 213 212 211 210 210 212 214 216 217 217 217 217 219 220 221 223 225 227 229 228 227 226 225 223 223 224 227 229 229 230 230 230 230 229 230 230 229 229 229 229 229 231 232 228 223 220 221 223 224 226
203 203 202 202 203 205 207 211 212 213 213 212 212 212 210 209 210 210 211 213 215 215 215 215 216 218 220 220 221 223 226 228 229 228 227 226 224 223 224 227 229 230 231 231 230 229 229 230 230 229 230 231 232 232 233 234 230 226 222 222 224 224 226
203 203 203 204 204 206 208 210 211 212 212 211 210 210 209 208 209 210 211 212 214 215 215 215 215 216 218 219 220 222 225 228 229 228 228 227 226 224 224 226 228 229 231 231 231 230 230 231 231 231 231 232 234 235 235 236 234 229 226 225 225 225 226
205 204 205 205 205 207 209 210 211 211 210 208 208 209 209 208 208 210 211 212 213 214 215 215 215 216 217 218 220 222 224 226 228 228 229 228 227 225 224 226 228 229 230 232 232 232 232 232 232 232 233 234 235 236 236 237 236 233 231 230 228 227 227
205 205 207 206 206 208 210 210 210 208 207 207 207 208 208 207 208 210 211 211 212 213 215 215 215 215 216 217 219 220 222 224 227 228 228 228 227 226 224 225 227 228 230 232 232 233 233 233 233 233 234 236 236 237 237 237 237 237 236 236 234 232 231
205 206 207 206 206 208 209 207 205 205 205 206 206 207 207 208 209 209 210 212 213 213 213 214 214 214 215 216 217 219 221 223 225 227 228 228 227 226 225 225 226 228 230 232 233 233 233 233 233 233 234 236 238 238 239 239 240 240 241 241 241 238 236
205 207 207 207 206 207 207 205 204 204 205 205 205 206 208 209 209 210 211 212 213 212 212 213 213 213 214 215 216 218 220 222 224 226 228 228 227 226 225 225 226 228 230 231 232 233 233 234 234 234 235 237 239 240 241 242 243 245 245 246 245 243 240
204 206 207 207 206 206 205 205 206 205 205 206 206 208 210 210 209 210 211 211 212 212 211 212 213 212 214 215 216 217 220 221 223 226 227 227 227 226 225 225 226 228 230 231 232 233 234 234 235 236 237 238 240 242 243 244 245 247 248 248 247 246 244
201 205 207 205 204 203 204 207 208 207 208 208 208 208 210 211 211 211 212 212 212 211 211 212 213 213 214 215 216 217 220 222 224 226 227 227 227 226 226 226 226 228 230 231 232 233 235 236 236 237 238 239 241 243 245 245 246 247 248 248 249 249 248
198 202 204 202 203 204 205 208 208 207 210 211 209 209 209 210 211 211 212 213 212 212 212 212 213 213 214 215 217 219 221 223 224 225 226 227 228 227 227 227 227 228 230 231 233 234 235 236 237 237 238 240 241 243 244 246 247 248 249 251 251 251 251
194 199 201 202 205 206 208 210 208 207 210 211 209 209 209 210 211 211 212 213 212 212 212 212 212 214 214 216 219 221 221 222 224 225 226 226 227 228 227 227 228 228 229 231 233 234 234 235 235 237 239 240 242 243 244 246 249 251 253 255 255 253 253
194 197 201 205 208 208 209 209 207 206 210 212 212 211 212 214 214 214 214 213 212 213 212 211 213 214 216 219 221 221 221 222 223 224 225 226 227 228 228 228 228 228 229 231 232 234 234 233 234 236 238 240 243 245 247 249 251 254 256 256 255 254 255
196 199 201 204 207 207 207 205 203 205 210 213 214 214 216 218 217 215 214 213 213 213 211 211 213 215 218 220 221 220 221 222 223 223 225 226 227 227 228 228 228 228 229 230 231 233 233 233 234 236 238 240 243 246 249 252 254 256 257 255 254 255 258
199 203 202 204 205 204 204 203 202 206 211 214 216 218 220 221 218 217 217 216 214 212 210 211 214 216 218 220 220 222 223 223 222 223 225 226 227 227 227 227 228 228 229 229 230 231 232 233 235 237 239 241 244 247 250 253 255 256 256 255 255 257 258
200 203 204 205 206 205 204 204 204 208 212 215 217 219 221 221 221 221 221 218 214 210 210 212 214 216 218 219 220 222 223 223 223 224 225 227 227 226 226 227 228 228 228 228 228 229 231 234 235 238 240 243 245 248 250 252 255 255 256 256 256 257 256
197 203 205 205 206 207 206 205 208 211 214 216 217 218 218 219 221 222 220 217 213 211 212 213 214 216 217 218 220 222 223 224 224 225 226 226 225 225 226 227 227 227 227 227 228 229 232 234 236 238 240 242 245 247 249 252 254 254 255 255 253 253 252
203 207 208 205 205 209 210 211 211 212 213 216 217 218 219 219 220 221 219 217 215 214 214 214 215 216 217 218 219 221 223 224 224 225 225 224 224 224 225 226 226 226 226 227 228 231 233 235 237 238 239 241 243 245 247 250 251 252 253 252 249 247 247
215 211 209 205 203 205 209 213 213 212 214 217 218 220 221 220 220 219 218 216 215 216 215 215 216 217 218 219 220 221 223 224 224 224 224 223 224 224 225 225 226 226 226 228 229 231 233 234 235 237 238 239 240 242 244 246 248 249 248 246 245 243 243
226 214 209 209 209 210 211 212 213 214 216 219 220 221 222 221 219 218 217 216 216 216 216 216 217 219 219 220 221 221 222 224 224 224 223 223 223 224 224 224 225 226 228 229 231 232 232 232 233 235 236 237 238 240 241 242 243 243 242 243 243 241 241
220 214 214 214 214 216 217 217 219 222 223 222 222 224 224 222 220 218 217 218 219 218 217 218 219 221 222 223 224 222 222 223 224 224 223 223 224 224 223 223 225 226 228 229 231 231 231 230 231 232 233 234 235 236 236 237 238 239 240 241 237 234 236
111 198 224 220 214 216 218 218 221 227 228 227 227 227 226 224 223 222 223 223 222 219 219 221 222 224 226 226 225 223 221 221 223 223 223 223 223 222 222 223 224 225 226 226 227 228 229 228 228 227 228 228 229 230 231 233 235 237 237 233 226 226 231
89 103 114 168 211 221 223 221 220 222 225 227 228 227 227 226 225 227 229 228 224 222 224 227 227 227 228 226 224 222 222 221 222 223 223 222 220 220 221 222 223 223 223 222 222 223 224 223 223 222 223 224 226 227 230 233 235 234 229 223 220 224 229
85 99 95 85 177 220 228 229 226 223 224 226 227 227 227 226 226 228 230 229 228 230 231 230 228 227 226 224 223 222 222 222 221 220 219 219 218 217 218 219 221 221 220 218 218 218 218 219 219 218 219 222 224 226 230 231 228 225 222 220 223 225 227
69 84 85 65 72 209 220 225 226 227 228 228 227 228 227 225 225 227 228 228 231 234 234 231 228 227 224 222 222 222 221 221 220 218 217 216 215 215 216 217 217 216 216 214 213 213 214 215 216 218 220 221 222 223 225 224 220 217 219 223 224 221 218
41 50 61 58 60 81 222 230 235 242 240 237 235 234 232 229 226 226 227 228 231 234 233 230 227 224 222 221 221 221 220 219 218 216 214 214 212 211 212 213 211 210 211 210 210 211 212 212 215 218 219 219 219 220 218 216 215 217 220 220 215 207 201
13 11 6 3 12 21 5 299 285 293 273 253 246 243 241 238 232 229 229 229 231 233 234 233 230 225 222 221 221 219 218 216 214 213 212 212 209 207 208 208 206 204 204 205 207 210 211 212 214 216 216 216 217 217 215 213 213 214 211 206 200 194 191
6 356 342 334 332 331 334 326 301 291 284 263 248 243 242 242 239 237 235 236 237 234 230 233 236 230 224 221 220 218 215 211 206 204 202 200 198 197 198 198 197 196 197 200 206 211 213 213 211 211 212 214 213 212 211 209 207 204 199 192 186 185 186
20 8 353 342 336 330 322 311 292 272 266 261 247 240 239 237 236 237 238 240 242 238 229 229 236 232 224 218 212 207 202 196 191 188 186 185 185 186 188 189 192 195 199 204 210 213 212 210 209 208 208 208 205 205 206 203 199 197 194 187 181 181 184
36 28 18 2 344 330 318 312 302 279 264 253 243 242 240 234 231 234 236 238 240 237 231 227 223 216 210 202 194 187 182 179 180 180 180 179 181 186 190 192 195 202 210 214 214 212 209 207 208 209 208 206 205 203 198 195 195 196 194 187 182 180 182
48 42 36 24 6 343 322 315 313 290 265 246 237 240 240 238 234 234 236 240 241 239 235 226 214 207 201 191 182 177 174 175 177 177 176 177 180 186 192 195 198 206 214 213 209 209 210 210 211 214 213 213 214 208 198 194 194 193 189 185 183 182 183
54 48 44 40 31 14 350 343 349 330 283 250 245 244 245 246 243 240 243 245 244 242 233 217 206 204 201 193 184 180 176 174 173 174 175 179 183 186 188 190 194 201 204 201 197 201 207 210 214 218 214 207 204 204 201 193 184 181 180 181 183 185 185
59 55 52 50 48 45 38 34 38 38 26 305 268 260 257 255 250 247 246 236 222 216 207 193 183 181 179 175 173 175 174 171 170 171 174 179 183 185 183 181 181 185 190 192 193 194 190 184 184 188 187 182 176 175 177 176 173 174 176 178 181 184 184
63 61 61 61 63 63 57 56 72 85 86 86 83 128 226 227 222 223 222 207 190 180 175 171 165 158 156 158 160 163 168 170 169 170 174 178 180 181 180 177 175 176 179 183 184 180 173 166 163 161 159 159 160 160 162 166 171 174 173 172 173 176 178
Height
1435 1438 1441 1444 1446 1449 1452 1454 1456 1459 1462 1465 1468 1471 1474 1477 1480 1482 1485 1487 1490 1494 1497 1500 1503 1505 1508 1511 1514 1517 1518 1520 1522 1523 1525 1527 1529 1531 1533 1534 1536 1537 1538 1539 1540 1541 1542 1544 1545 1546 1548 1549 1550 1550 1551 1552 1553 1554 1555 1556 1557 1558 1559
1431 1433 1436 1439 1442 1445 1447 1449 1451 1454 1457 1460 1463 1466 1469 1472 1475 1477 1480 1483 1486 1489 1493 1496 1499 1501 1504 1507 1511 1513 1515 1517 1519 1520 1522 1524 1526 1528 1530 1532 1533 1534 1535 1536 1538 1539 1541 1542 1543 1544 1546 1547 1548 1549 1550 1550 1551 1552 1553 1554 1555 1556 1557
1426 1429 1431 1434 1437 1439 1442 1444 1447 1449 1452 1454 1458 1461 1463 1465 1468 1471 1475 1479 1482 1486 1489 1492 1495 1498 1501 1504 1507 1509 1512 1514 1515 1517 1518 1520 1523 1525 1528 1530 1531 1532 1533 1534 1536 1537 1538 1540 1541 1542 1543 1545 1546 1547 1548 1549 1550 1551 1551 1552 1553 1554 1555
1421 1423 1426 1429 1431 1434 1437 1439 1442 1444 1446 1449 1451 1454 1457 1460 1463 1467 1471 1474 1478 1481 1485 1488 1491 1494 1497 1500 1503 1505 1508 1510 1512 1513 1515 1517 1520 1523 1525 1526 1527 1529 1530 1531 1533 1535 1536 1537 1538 1540 1541 1542 1544 1545 1546 1547 1548 1549 1550 1551 1552 1552 1554
1417 1419 1422 1425 1427 1430 1432 1434 1437 1438 1441 1444 1447 1450 1452 1456 1460 1464 1468 1470 1473 1476 1479 1483 1487 1490 1493 1496 1499 1501 1503 1506 1508 1510 1512 1514 1517 1520 1521 1522 1524 1525 1527 1529 1531 1532 1533 1535 1536 1537 1538 1539 1541 1542 1544 1545 1546 1547 1548 1549 1550 1550 1551
1413 1415 1418 1420 1422 1425 1427 1429 1431 1433 1436 1439 1442 1446 1449 1454 1457 1460 1463 1466 1469 1472 1476 1479 1483 1485 1489 1491 1494 1497 1500 1502 1505 1507 1509 1511 1514 1516 1517 1519 1521 1522 1524 1526 1528 1529 1530 1532 1533 1534 1535 1537 1538 1540 1541 1542 1543 1545 1546 1547 1547 1548 1549
1407 1409 1412 1415 1417 1420 1422 1424 1426 1429 1432 1435 1439 1443 1446 1450 1453 1456 1459 1462 1465 1468 1472 1475 1478 1481 1484 1487 1490 1493 1495 1498 1501 1503 1506 1508 1510 1512 1514 1516 1518 1519 1521 1523 1524 1526 1527 1529 1530 1531 1533 1534 1535 1537 1538 1539 1541 1542 1543 1544 1545 1546 1547
1401 1404 1407 1410 1412 1415 1418 1420 1423 1426 1429 1433 1436 1439 1442 1445 1449 1452 1455 1457 1461 1464 1466 1469 1472 1476 1479 1482 1485 1487 1490 1493 1497 1499 1502 1504 1506 1508 1510 1512 1514 1516 1518 1519 1521 1523 1524 1525 1527 1528 1530 1531 1532 1534 1535 1536 1538 1539 1540 1541 1542 1543 1544
1397 1399 1402 1405 1407 1411 1413 1416 1419 1422 1426 1430 1432 1435 1437 1441 1444 1447 1449 1453 1456 1459 1461 1464 1468 1471 1475 1478 1480 1482 1486 1489 1492 1495 1498 1500 1502 1504 1506 1508 1511 1513 1514 1516 1518 1519 1521 1522 1524 1525 1527 1528 1529 1530 1532 1533 1534 1536 1537 1538 1539 1540 1541
1394 1396 1398 1400 1403 1406 1409 1412 1415 1419 1423 1426 1428 1431 1434 1437 1440 1443 1447 1450 1452 1454 1458 1462 1465 1468 1471 1474 1476 1479 1482 1485 1488 1491 1493 1495 1497 1499 1502 1505 1507 1509 1511 1512 1514 1516 1517 1520 1521 1522 1524 1524 1525 1527 1528 1529 1531 1532 1533 1534 1536 1537 1538
1391 1392 1394 1397 1400 1403 1406 1409 1413 1416 1418 1421 1424 1427 1430 1433 1437 1440 1443 1446 1448 1451 1456 1459 1462 1465 1468 1470 1473 1475 1477 1480 1483 1486 1488 1491 1493 1495 1498 1501 1503 1505 1507 1508 1510 1512 1514 1516 1518 1519 1519 1520 1521 1523 1525 1526 1527 1528 1529 1531 1532 1534 1536
1387 1389 1391 1394 1396 1400 1404 1407 1410 1412 1414 1417 1420 1423 1426 1429 1433 1436 1439 1442 1445 1449 1453 1456 1459 1461 1464 1466 1469 1471 1473 1476 1478 1481 1483 1486 1488 1490 1493 1496 1499 1500 1502 1504 1505 1508 1510 1512 1513 1514 1515 1516 1518 1520 1521 1523 1524 1525 1526 1527 1529 1530 1533
1384 1385 1388 1390 1393 1397 1401 1404 1406 1408 1411 1415 1417 1420 1422 1425 1429 1432 1435 1439 1442 1446 1450 1453 1456 1458 1460 1462 1464 1467 1468 1471 1473 1475 1478 1481 1483 1486 1489 1491 1494 1496 1498 1500 1501 1503 1505 1507 1508 1509 1511 1513 1515 1516 1518 1520 1521 1522 1523 1525 1526 1527 1529
1381 1383 1385 1387 1390 1394 1397 1399 1402 1404 1408 1411 1414 1417 1419 1422 1425 1428 1431 1435 1439 1443 1446 1449 1451 1453 1455 1457 1459 1461 1463 1465 1468 1470 1473 1476 1479 1482 1484 1486 1489 1491 1493 1496 1497 1499 1500 1502 1504 1506 1508 1510 1511 1513 1515 1516 1518 1519 1520 1521 1522 1523 1524
1378 1381 1383 1386 1389 1391 1393 1395 1397 1400 1404 1407 1410 1414 1416 1419 1422 1425 1428 1431 1435 1438 1440 1444 1447 1448 1450 1452 1453 1455 1457 1460 1463 1466 1469 1472 1474 1477 1479 1481 1484 1486 1489 1491 1493 1494 1496 1498 1500 1502 1504 1507 1509 1510 1512 1513 1513 1515 1516 1518 1518 1519 1520
1375 1378 1382 1384 1386 1388 1390 1392 1394 1397 1400 1403 1406 1410 1413 1416 1418 1421 1424 1427 1430 1433 1435 1439 1442 1444 1445 1446 1446 1449 1453 1456 1458 1461 1464 1466 1469 1471 1474 1476 1479 1482 1484 1486 1488 1490 1492 1494 1497 1499 1501 1503 1505 1507 1508 1509 1510 1511 1513 1514 1514 1516 1519
1369 1373 1376 1379 1382 1384 1386 1388 1391 1395 1398 1400 1403 1406 1409 1412 1414 1416 1419 1422 1425 1428 1431 1434 1437 1439 1440 1441 1442 1445 1449 1451 1453 1456 1458 1460 1463 1466 1469 1472 1475 1477 1479 1481 1484 1486 1488 1491 1494 1496 1498 1500 1502 1503 1504 1505 1506 1508 1509 1510 1512 1514 1517
1366 1368 1370 1373 1376 1379 1382 1384 1388 1392 1395 1398 1401 1403 1406 1408 1410 1413 1415 1417 1420 1422 1426 1429 1431 1433 1435 1437 1440 1442 1444 1446 1449 1451 1453 1455 1458 1461 1464 1467 1470 1473 1475 1477 1480 1483 1485 1488 1490 1492 1495 1497 1499 1500 1500 1501 1503 1504 1506 1508 1510 1512 1514
1366 1367 1369 1371 1373 1375 1379 1381 1385 1388 1392 1395 1398 1400 1402 1404 1406 1408 1410 1412 1414 1418 1422 1424 1426 1428 1430 1433 1436 1438 1439 1442 1444 1446 1448 1450 1453 1456 1459 1463 1466 1468 1470 1474 1477 1480 1482 1484 1487 1489 1492 1494 1495 1496 1497 1498 1500 1501 1503 1505 1507 1509 1511
1366 1367 1369 1371 1373 1374 1376 1379 1383 1386 1389 1392 1395 1397 1399 1401 1403 1404 1405 1408 1411 1414 1417 1419 1421 1424 1426 1429 1432 1433 1435 1437 1439 1441 1443 1446 1449 1453 1456 1459 1461 1464 1468 1471 1475 1477 1479 1482 1484 1487 1488 1490 1491 1492 1494 1496 1497 1499 1501 1503 1504 1506 1507
1364 1366 1367 1369 1372 1373 1375 1378 1381 1384 1386 1389 1391 1393 1396 1398 1399 1402 1404 1406 1409 1411 1413 1414 1417 1419 1422 1425 1427 1430 1431 1433 1434 1437 1439 1443 1446 1449 1452 1455 1458 1462 1465 1469 1472 1474 1477 1480 1482 1484 1485 1487 1488 1490 1492 1493 1494 1496 1498 1500 1502 1504 1504
1361 1363 1365 1366 1368 1370 1373 1375 1377 1380 1382 1385 1388 1390 1391 1394 1396 1398 1401 1403 1405 1407 1409 1411 1413 1415 1417 1420 1422 1425 1427 1428 1431 1433 1436 1440 1443 1446 1449 1452 1455 1459 1463 1466 1469 1472 1475 1477 1479 1480 1482 1484 1486 1488 1489 1490 1491 1494 1496 1498 1499 1501 1501
1360 1361 1362 1363 1365 1367 1369 1372 1374 1376 1379 1381 1383 1385 1387 1390 1392 1394 1396 1399 1401 1403 1405 1407 1409 1410 1412 1414 1417 1420 1422 1424 1427 1430 1433 1437 1440 1443 1446 1449 1453 1457 1460 1464 1466 1468 1471 1473 1475 1476 1478 1481 1483 1485 1486 1487 1489 1491 1493 1495 1496 1497 1497
1361 1362 1363 1363 1365 1367 1368 1371 1372 1375 1377 1378 1379 1382 1384 1387 1389 1390 1392 1394 1396 1399 1401 1403 1404 1406 1408 1409 1411 1414 1417 1421 1424 1427 1431 1434 1437 1439 1443 1447 1451 1454 1457 1460 1462 1464 1467 1469 1471 1473 1475 1478 1480 1481 1482 1484 1486 1488 1490 1491 1492 1492 1493
1362 1364 1366 1366 1367 1369 1370 1371 1373 1374 1375 1376 1377 1380 1382 1385 1386 1388 1389 1390 1391 1394 1396 1397 1400 1402 1403 1405 1407 1410 1414 1418 1422 1425 1428 1431 1434 1437 1441 1445 1448 1452 1454 1457 1459 1461 1464 1466 1468 1470 1472 1475 1476 1478 1480 1482 1483 1485 1486 1487 1488 1488 1489
1362 1363 1364 1365 1367 1368 1368 1370 1371 1372 1372 1373 1375 1378 1380 1382 1383 1384 1385 1386 1388 1389 1390 1392 1395 1397 1399 1401 1404 1408 1412 1416 1419 1422 1425 1428 1431 1435 1439 1443 1446 1449 1451 1454 1456 1459 1462 1463 1466 1468 1470 1472 1474 1475 1477 1479 1480 1481 1483 1484 1485 1486 1487
1363 1363 1363 1363 1364 1364 1365 1367 1367 1368 1369 1370 1372 1374 1376 1378 1379 1380 1381 1383 1384 1384 1385 1388 1391 1393 1395 1398 1401 1405 1409 1413 1416 1419 1422 1426 1429 1434 1437 1440 1442 1445 1447 1450 1453 1457 1459 1462 1464 1466 1468 1469 1471 1473 1474 1476 1477 1479 1480 1482 1483 1484 1484
1363 1363 1363 1362 1362 1362 1363 1364 1365 1366 1367 1367 1369 1371 1372 1373 1374 1375 1377 1378 1379 1381 1382 1385 1387 1390 1392 1395 1398 1401 1404 1409 1412 1416 1420 1423 1426 1430 1434 1436 1439 1441 1443 1447 1451 1455 1458 1460 1462 1464 1466 1467 1469 1471 1472 1473 1475 1477 1478 1480 1481 1481 1482
1363 1363 1363 1363 1363 1363 1362 1363 1363 1363 1364 1365 1366 1367 1368 1370 1371 1372 1374 1374 1376 1378 1380 1382 1384 1388 1391 1393 1395 1397 1400 1404 1408 1411 1414 1417 1420 1425 1429 1432 1434 1437 1440 1444 1449 1452 1455 1457 1459 1461 1463 1465 1467 1468 1469 1471 1473 1474 1476 1477 1478 1479 1481
1363 1364 1364 1364 1364 1364 1363 1362 1361 1361 1363 1363 1364 1365 1366 1367 1369 1371 1372 1373 1375 1378 1380 1382 1383 1385 1388 1391 1392 1394 1396 1399 1402 1406 1409 1412 1416 1420 1425 1428 1430 1434 1438 1442 1446 1449 1451 1454 1456 1459 1461 1462 1463 1464 1466 1468 1470 1471 1473 1474 1475 1477 1479
1362 1362 1362 1363 1364 1363 1362 1361 1360 1361 1362 1362 1363 1364 1364 1366 1367 1369 1370 1371 1373 1376 1381 1384 1385 1385 1385 1387 1388 1390 1391 1394 1397 1401 1405 1409 1412 1416 1421 1424 1428 1432 1435 1438 1442 1446 1449 1451 1454 1456 1458 1459 1461 1462 1464 1465 1467 1468 1469 1471 1473 1475 1477
1362 1361 1360 1360 1360 1360 1360 1359 1359 1360 1360 1361 1362 1362 1362 1364 1365 1367 1369 1371 1372 1374 1377 1381 1385 1386 1385 1384 1384 1385 1387 1389 1393 1398 1403 1408 1412 1416 1420 1423 1426 1431 1435 1439 1443 1447 1448 1450 1452 1454 1456 1458 1459 1461 1462 1463 1464 1465 1466 1468 1471 1473 1476
1363 1362 1361 1360 1359 1358 1358 1357 1358 1359 1359 1359 1360 1360 1360 1361 1362 1364 1366 1368 1371 1374 1375 1377 1382 1385 1386 1384 1382 1383 1384 1385 1388 1393 1399 1404 1408 1413 1418 1424 1429 1435 1438 1441 1446 1448 1449 1449 1450 1452 1454 1456 1457 1459 1459 1460 1461 1462 1464 1466 1468 1471 1474
1364 1363 1362 1361 1359 1359 1358 1358 1358 1358 1358 1358 1358 1358 1359 1360 1360 1360 1361 1363 1366 1370 1371 1371 1375 1381 1386 1386 1383 1380 1381 1383 1385 1387 1392 1399 1406 1412 1419 1425 1432 1436 1438 1440 1444 1446 1447 1447 1449 1451 1453 1454 1455 1456 1457 1458 1459 1460 1462 1464 1466 1469 1472
1366 1365 1363 1362 1361 1360 1359 1359 1358 1358 1357 1357 1356 1357 1357 1357 1358 1359 1359 1361 1363 1364 1364 1363 1364 1371 1380 1386 1386 1382 1379 1379 1380 1383 1389 1399 1408 1414 1419 1423 1427 1432 1436 1440 1443 1445 1445 1446 1448 1450 1451 1452 1453 1453 1454 1455 1457 1459 1462 1464 1466 1468 1471
1367 1366 1364 1363 1362 1361 1360 1360 1359 1358 1357 1357 1356 1356 1356 1356 1356 1357 1357 1358 1359 1359 1358 1357 1359 1361 1364 1371 1379 1383 1379 1376 1377 1383 1390 1397 1404 1410 1415 1419 1423 1430 1436 1440 1442 1443 1445 1446 1447 1448 1449 1450 1451 1452 1453 1455 1456 1459 1462 1464 1467 1469 1472
1368 1367 1366 1365 1364 1362 1362 1361 1361 1359 1358 1358 1358 1358 1357 1356 1355 1354 1355 1355 1354 1354 1354 1355 1358 1359 1357 1360 1367 1374 1377 1376 1377 1381 1388 1394 1400 1405 1411 1416 1423 1430 1436 1438 1439 1440 1442 1443 1445 1447 1448 1449 1450 1451 1453 1455 1457 1459 1461 1464 1467 1469 1472
1370 1369 1368 1367 1366 1364 1363 1363 1362 1362 1360 1360 1360 1360 1359 1358 1356 1354 1353 1352 1352 1353 1353 1353 1356 1359 1361 1363 1365 1368 1373 1377 1377 1379 1385 1393 1399 1404 1409 1414 1421 1427 1431 1434 1436 1438 1440 1442 1444 1446 1447 1448 1449 1450 1452 1454 1457 1459 1461 1463 1466 1469 1471